Home > Time Zones > World Clock > Weather > Latvia > Riga > Past weeks

Flag for Latvia Weather past 2 weeks in Riga, Latvia

Now
75 °F

Sunny.


Feels Like: 77 °F
Forecast: 67 / 82 °F
Wind: 3 mph from South

Location: Riga Airport

Current Time: Jul 30, 2014 at 10:57:03 PM

Latest Report: Jul 30, 2014 at 10:20 PM


Visibility: 10 mi

Pressure: 29.80 "Hg

Humidity: 65%

Dew point: 63 °F

Location of RigaLocation

Historic Weather in Riga — Graph

°F

Riga temperature yesterday

Maximum temperature yesterday: 88 °F (at 2:20 PM)
Minimum temperature yesterday: 63 °F (at 5:50 AM)
Average temperature yesterday: 71 °F

Past Weeks' High & Low Weather Summary

 TemperatureHumidityPressure
High88 °F (Jul 27, 4:50 PM)100% (Jul 16, 12:20 AM)30.18 "Hg (Jul 16, 12:20 AM)
Low54 °F (Jul 17, 4:50 AM)31% (Jul 27, 1:20 PM)29.77 "Hg (Jul 30, 6:20 PM)
Average70 °F72%30.05 "Hg
* Reported Jul 15 9:20 PM — Jul 30 9:20 PM, Riga, Weather by CustomWeather, © 2014

Note: Actual official high and low records may vary slightly from our data, if they occured in-between our weather recording intervals... More about our weather records

Advertising

Riga weather history for previous 24 hours

 ConditionsComfort  
Time TempWeatherWind HumidityBarometerVisibility
9:20 PM
Jul 30
79 °FSunny.2 mph58%29.77 "Hg10 mi
8:50 PM81 °FSunny.6 mph51%29.77 "Hg10 mi
8:20 PM82 °FSunny.7 mph48%29.77 "Hg10 mi
7:50 PM84 °FSunny.9 mph45%29.77 "Hg10 mi
7:20 PM86 °FSunny.10 mph43%29.77 "Hg10 mi
6:50 PM86 °FSunny.12 mph40%29.77 "Hg10 mi
6:20 PM86 °FSunny.13 mph38%29.77 "Hg10 mi
5:50 PM86 °FSunny.13 mph35%29.80 "Hg10 mi
5:20 PM86 °FSunny.10 mph38%29.80 "Hg10 mi
4:50 PM88 °FPassing clouds.9 mph33%29.80 "HgN/A
4:20 PM88 °FSunny.12 mph33%29.80 "Hg10 mi
3:50 PM86 °FPassing clouds.9 mph46%29.80 "HgN/A
3:20 PM86 °FPassing clouds.9 mph52%29.80 "HgN/A
2:50 PM86 °FPassing clouds.9 mph46%29.83 "HgN/A
2:20 PM84 °FSunny.9 mph51%29.83 "Hg10 mi
1:50 PM82 °FPassing clouds.10 mph58%29.83 "HgN/A
1:20 PM82 °FSunny.10 mph58%29.83 "Hg10 mi
12:50 PM81 °FSunny.12 mph66%29.83 "Hg10 mi
12:20 PM79 °FPassing clouds.9 mph70%29.83 "HgN/A
11:50 AM77 °FPassing clouds.7 mph69%29.83 "HgN/A
11:20 AM77 °FPassing clouds.9 mph69%29.83 "HgN/A
10:50 AM75 °FPassing clouds.7 mph69%29.83 "HgN/A
10:20 AM73 °FPassing clouds.6 mph74%29.83 "HgN/A
9:50 AM73 °FPassing clouds.3 mph74%29.83 "HgN/A
9:20 AM72 °FPassing clouds.5 mph78%29.83 "HgN/A
8:50 AM70 °FPassing clouds.5 mph83%29.83 "HgN/A
8:20 AM68 °FSunny.3 mph88%29.83 "Hg10 mi
7:50 AM66 °FPassing clouds.5 mph88%29.83 "HgN/A
7:20 AM64 °FSunny.2 mph94%29.83 "Hg10 mi
6:50 AM63 °FPassing clouds.6 mph100%29.83 "HgN/A
6:20 AM63 °FPassing clouds.1 mph100%29.83 "Hg6 mi
5:50 AM61 °FFog.2 mph100%29.83 "Hg2 mi
5:20 AM61 °FCool.No wind100%29.83 "Hg2 mi
4:50 AM61 °FFog.No wind100%29.83 "Hg3 mi
4:20 AM63 °FMild.No wind94%29.83 "Hg5 mi
3:50 AM63 °FMild.No wind94%29.83 "Hg4 mi
3:20 AM63 °FPassing clouds.No wind94%29.83 "Hg4 mi
2:50 AM63 °FClear.No wind100%29.83 "Hg10 mi
2:20 AM63 °FClear.1 mph100%29.83 "Hg6 mi
1:50 AM64 °FClear.2 mph94%29.83 "Hg10 mi
1:20 AM64 °FClear.3 mph94%29.83 "Hg10 mi
12:50 AM64 °FClear.No wind94%29.83 "HgN/A
12:20 AM64 °FClear.3 mph94%29.83 "Hg10 mi
11:50 PM
Jul 29
64 °FClear.8 mph94%29.86 "Hg10 mi
11:20 PM66 °FPassing clouds.10 mph88%29.86 "HgN/A
10:50 PM66 °FSprinkles. Passing clouds.3 mph94%29.83 "HgN/A
10:20 PM66 °FPassing clouds.8 mph94%29.80 "HgN/A
Weather by CustomWeather, © 2014

See weather overviewHow to use our weather pages